Location: Peach Mountain Observatory
(42.3967°N, 83.9367°W)
Time: 02:22:55
(UTC-05:00)

deb Explorer IX - Pass Details

Date: 01 February 2020
Orbit: 549 x 1099 km, 38.8° (Epoch: 20 February)

Event Time Altitude Azimuth Distance (km) Brightness Sun altitude
Rises 20:19:22 0° 249° (WSW) 3,396 ? -27.9°
Reaches altitude 10° 20:21:48 10° 245° (WSW) 2,542 ? -28.3°
Enters shadow 20:27:36 58° 177° (S) 1,126 ? -29.4°
